Stündliche Wetter Abtenau

Heute, 22 Juni, Dienstag

Zeit Temperatur Niederschläge Wind Luftdruck Luftfeuchtigkeit
00:00 +15°C° 0.2 mm 2 m/S 663 mmHg 95%
01:00 +15°C° 0 mm 2 m/S 663 mmHg 96%
02:00 +14°C° 0.1 mm 1 m/S 664 mmHg 97%
03:00 +14°C° 0.1 mm 1 m/S 664 mmHg 97%
04:00 +14°C° 0.1 mm 1 m/S 664 mmHg 98%
05:00 +15°C° 0 mm 1 m/S 665 mmHg 96%
06:00 +16°C° 0 mm 1 m/S 665 mmHg 94%
07:00 +16°C° 0 mm 1 m/S 665 mmHg 92%
08:00 +19°C° 0 mm 1 m/S 665 mmHg 81%
09:00 +21°C° 0 mm 1 m/S 666 mmHg 70%
10:00 +24°C° 0 mm 1 m/S 666 mmHg 59%
11:00 +25°C° 0 mm 1 m/S 666 mmHg 54%
12:00 +26°C° 0 mm 2 m/S 666 mmHg 50%
13:00 +27°C° 0 mm 2 m/S 666 mmHg 46%
14:00 +26°C° 0.3 mm 2 m/S 666 mmHg 52%
15:00 +25°C° 0.3 mm 2 m/S 666 mmHg 58%
16:00 +24°C° 0.3 mm 2 m/S 665 mmHg 64%
17:00 +23°C° 0.7 mm 2 m/S 666 mmHg 71%
18:00 +21°C° 0.7 mm 2 m/S 666 mmHg 78%
19:00 +20°C° 0.7 mm 1 m/S 666 mmHg 85%
20:00 +19°C° 0.4 mm 1 m/S 666 mmHg 89%
21:00 +16°C° 0.4 mm 1 m/S 666 mmHg 93%
22:00 +15°C° 0.4 mm 1 m/S 666 mmHg 96%
23:00 +15°C° 0.2 mm 1 m/S 667 mmHg 97%

Morgen, 23 Juni, Mittwoch

Zeit Temperatur Niederschläge Wind Luftdruck Luftfeuchtigkeit
00:00 +15°C° 0.2 mm 1 m/S 667 mmHg 97%
01:00 +14°C° 0.2 mm 0 m/S 667 mmHg 98%
02:00 +14°C° 0 mm 0 m/S 667 mmHg 98%
03:00 +14°C° 0 mm 0 m/S 667 mmHg 97%
04:00 +14°C° 0 mm 0 m/S 667 mmHg 97%
05:00 +15°C° 0 mm 0 m/S 667 mmHg 94%
06:00 +16°C° 0 mm 0 m/S 668 mmHg 91%
07:00 +16°C° 0 mm 0 m/S 668 mmHg 88%
08:00 +20°C° 0.1 mm 1 m/S 669 mmHg 80%
09:00 +21°C° 0.1 mm 1 m/S 669 mmHg 73%
10:00 +22°C° 0.1 mm 1 m/S 669 mmHg 66%
11:00 +23°C° 0.1 mm 2 m/S 669 mmHg 65%
12:00 +23°C° 0.1 mm 2 m/S 669 mmHg 64%
13:00 +24°C° 0.1 mm 2 m/S 669 mmHg 63%
14:00 +24°C° 0.1 mm 2 m/S 669 mmHg 64%
15:00 +23°C° 0.1 mm 2 m/S 669 mmHg 65%
16:00 +23°C° 0.1 mm 2 m/S 669 mmHg 66%
17:00 +21°C° 0.3 mm 2 m/S 669 mmHg 73%
18:00 +21°C° 0.3 mm 1 m/S 668 mmHg 80%
19:00 +20°C° 0.3 mm 1 m/S 668 mmHg 86%
20:00 +19°C° 0.2 mm 1 m/S 668 mmHg 88%
21:00 +17°C° 0.2 mm 2 m/S 668 mmHg 89%
22:00 +16°C° 0.2 mm 2 m/S 667 mmHg 90%
23:00 +15°C° 0 mm 2 m/S 667 mmHg 90%

übermorgen, 24 Juni, Donnerstag

Zeit Temperatur Niederschläge Wind Luftdruck Luftfeuchtigkeit
00:00 +14°C° 0 mm 2 m/S 668 mmHg 91%
01:00 +13°C° 0 mm 2 m/S 668 mmHg 92%
02:00 +13°C° 0 mm 1 m/S 668 mmHg 92%
03:00 +13°C° 0 mm 1 m/S 668 mmHg 91%
04:00 +13°C° 0 mm 1 m/S 668 mmHg 91%
05:00 +14°C° 0 mm 1 m/S 668 mmHg 87%
06:00 +15°C° 0 mm 0 m/S 668 mmHg 82%
07:00 +16°C° 0 mm 0 m/S 669 mmHg 78%
08:00 +21°C° 0 mm 1 m/S 669 mmHg 68%
09:00 +23°C° 0 mm 1 m/S 669 mmHg 58%
10:00 +25°C° 0 mm 1 m/S 669 mmHg 48%
11:00 +26°C° 0.1 mm 2 m/S 669 mmHg 48%
12:00 +26°C° 0.1 mm 2 m/S 669 mmHg 48%
13:00 +27°C° 0.1 mm 3 m/S 668 mmHg 47%
14:00 +26°C° 0.5 mm 3 m/S 668 mmHg 53%
15:00 +25°C° 0.5 mm 2 m/S 668 mmHg 58%
16:00 +24°C° 0.5 mm 2 m/S 668 mmHg 64%
17:00 +23°C° 0.3 mm 2 m/S 667 mmHg 71%
18:00 +21°C° 0.3 mm 2 m/S 667 mmHg 78%
19:00 +20°C° 0.3 mm 1 m/S 666 mmHg 85%
20:00 +19°C° 0.6 mm 1 m/S 667 mmHg 88%
21:00 +16°C° 0.6 mm 1 m/S 667 mmHg 91%
22:00 +15°C° 0.6 mm 1 m/S 667 mmHg 95%
23:00 +14°C° 0.4 mm 1 m/S 667 mmHg 95%

25 Juni, Freitag

Zeit Temperatur Niederschläge Wind Luftdruck Luftfeuchtigkeit
00:00 +14°C° 0.4 mm 1 m/S 667 mmHg 96%
01:00 +13°C° 0.4 mm 1 m/S 667 mmHg 97%
02:00 +13°C° 0.5 mm 1 m/S 668 mmHg 97%
03:00 +13°C° 0.5 mm 1 m/S 668 mmHg 97%
04:00 +12°C° 0.5 mm 1 m/S 668 mmHg 98%
05:00 +12°C° 0.1 mm 1 m/S 668 mmHg 96%
06:00 +13°C° 0.1 mm 1 m/S 669 mmHg 95%
07:00 +13°C° 0.1 mm 1 m/S 669 mmHg 93%
08:00 +13°C° 0.1 mm 1 m/S 669 mmHg 90%
09:00 +14°C° 0.1 mm 1 m/S 669 mmHg 88%
10:00 +14°C° 0.1 mm 1 m/S 669 mmHg 85%
11:00 +15°C° 0.1 mm 2 m/S 670 mmHg 78%
12:00 +16°C° 0.1 mm 2 m/S 670 mmHg 71%
13:00 +18°C° 0.1 mm 2 m/S 670 mmHg 64%
14:00 +17°C° 0.1 mm 2 m/S 670 mmHg 67%
15:00 +16°C° 0.1 mm 2 m/S 670 mmHg 70%
16:00 +16°C° 0.1 mm 2 m/S 670 mmHg 73%
17:00 +15°C° 0.1 mm 2 m/S 670 mmHg 77%
18:00 +14°C° 0.1 mm 2 m/S 670 mmHg 81%
19:00 +14°C° 0.1 mm 1 m/S 670 mmHg 85%
20:00 +13°C° 0 mm 1 m/S 670 mmHg 88%
21:00 +12°C° 0 mm 1 m/S 670 mmHg 91%
22:00 +11°C° 0 mm 1 m/S 670 mmHg 94%
23:00 +11°C° 0.1 mm 1 m/S 670 mmHg 94%

26 Juni, Samstag

Zeit Temperatur Niederschläge Wind Luftdruck Luftfeuchtigkeit
00:00 +12°C° 0.1 mm 1 m/S 670 mmHg 95%
01:00 +12°C° 0.1 mm 1 m/S 670 mmHg 95%
02:00 +12°C° 0.3 mm 1 m/S 670 mmHg 96%
03:00 +12°C° 0.3 mm 1 m/S 670 mmHg 96%
04:00 +12°C° 0.3 mm 1 m/S 670 mmHg 96%
05:00 +11°C° 0.1 mm 0 m/S 670 mmHg 95%
06:00 +11°C° 0.1 mm 0 m/S 670 mmHg 94%
07:00 +12°C° 0.1 mm 0 m/S 670 mmHg 92%
08:00 +13°C° 0.1 mm 0 m/S 670 mmHg 87%
09:00 +15°C° 0.1 mm 1 m/S 671 mmHg 81%
10:00 +16°C° 0.1 mm 1 m/S 671 mmHg 75%
11:00 +18°C° 0.3 mm 1 m/S 671 mmHg 71%
12:00 +19°C° 0.3 mm 1 m/S 671 mmHg 67%
13:00 +20°C° 0.3 mm 1 m/S 671 mmHg 64%
14:00 +20°C° 0.4 mm 1 m/S 671 mmHg 66%
15:00 +20°C° 0.4 mm 1 m/S 671 mmHg 69%
16:00 +20°C° 0.4 mm 1 m/S 670 mmHg 72%
17:00 +19°C° 0.3 mm 1 m/S 670 mmHg 77%
18:00 +18°C° 0.3 mm 1 m/S 670 mmHg 82%
19:00 +16°C° 0.3 mm 1 m/S 670 mmHg 87%
20:00 +15°C° 0 mm 1 m/S 670 mmHg 90%
21:00 +14°C° 0 mm 1 m/S 670 mmHg 93%
22:00 +12°C° 0 mm 1 m/S 670 mmHg 95%
23:00 +12°C° 0 mm 1 m/S 670 mmHg 96%

27 Juni, Sonntag

Zeit Temperatur Niederschläge Wind Luftdruck Luftfeuchtigkeit
00:00 +12°C° 0 mm 1 m/S 670 mmHg 96%
01:00 +11°C° 0 mm 1 m/S 669 mmHg 96%
02:00 +11°C° 0 mm 1 m/S 669 mmHg 96%
03:00 +11°C° 0 mm 1 m/S 669 mmHg 95%
04:00 +11°C° 0 mm 1 m/S 669 mmHg 95%
05:00 +12°C° 0 mm 1 m/S 669 mmHg 90%
06:00 +14°C° 0 mm 1 m/S 670 mmHg 86%
07:00 +15°C° 0 mm 0 m/S 670 mmHg 81%
08:00 +19°C° 0 mm 1 m/S 671 mmHg 70%
09:00 +21°C° 0 mm 1 m/S 671 mmHg 60%
10:00 +23°C° 0 mm 1 m/S 671 mmHg 49%
11:00 +24°C° 0 mm 1 m/S 671 mmHg 45%
12:00 +25°C° 0 mm 2 m/S 671 mmHg 41%
13:00 +26°C° 0 mm 2 m/S 671 mmHg 38%
14:00 +26°C° 0 mm 2 m/S 671 mmHg 40%
15:00 +25°C° 0 mm 2 m/S 671 mmHg 42%
16:00 +25°C° 0 mm 2 m/S 671 mmHg 44%
17:00 +23°C° 0.2 mm 2 m/S 671 mmHg 56%
18:00 +21°C° 0.2 mm 1 m/S 671 mmHg 69%
19:00 +20°C° 0.2 mm 1 m/S 671 mmHg 81%
20:00 +18°C° 0.2 mm 1 m/S 671 mmHg 83%
21:00 +16°C° 0.2 mm 1 m/S 671 mmHg 86%
22:00 +15°C° 0.2 mm 1 m/S 671 mmHg 88%
23:00 +15°C° 0 mm 1 m/S 671 mmHg 89%
Mehr zeigen

Wir brauchen deine Erlaubnis

Meteoprog und unser Service Anbieter werden persönliche Daten aufbewahren, so wie Cookies, Geräte Bezeichnung oder ähnliche Technologien von deinem Gerät und Prozess, so wie Persönliche Daten Inhalte und Werbungen, genauso wie social Media und den Verkehr zu analysieren.

  • Aufbewahrung und/oder Zugang zu deiner Geräte Informationen.

    Cookies, Geräte Bezeichnung oder andere Informationen, können aufbewahrt oder Zugang zu deinem Gerät erhalten, für den Grund, der oben angegeben wird.

  • Personalisierte Werbung und Inhalte, Messungen, Einblick in das Publikum und Produkt Entwicklung.

    Werbungen und Inhalte können personalisiert werden, basierend auf ein Profil. Mehr Daten können besser personalisierte Werbungen und Inhalte hinzufügen. Werbung und Inhalte können gezeigt und gemessen werden. Einblicke über das Publikum, welche die Werbung gesehen haben und den Inhalt, können abgeleitet werden. So wie Daten können genutzt werden, um es zu verbessern oder die Benutzer Erfahrung zu verbessern das System und die Software.

Wenn du “Ich stimme zu” klickst, erlaubst du uns, die Cookies zu benutzen die Geräte Bezeichnung, den Web oder ähnliche Technologien zu benutzen. Deine Settings, können in deinem Gerät bei deinem Browser geändert werden.

Für den bestimmten Zweck, berechtigten Interessen beruhen darauf, mehr als auf den Inhalt. Du kannst mehr darüber in unseren Privaten und Cookie Politik lesen.